,,,PA_Meas_PMT16A,,PR_Meas_QMR101_102,,RH_Meas_QMH101,,SR_Meas_QMS101,,TA_Meas_QMH101,,GenWind,,GenWind,
date,time,status,PA,status,PR,status,RH,status,SR,status,TA,status,DirAvg,status,SpdAvg,
2010-10-16, 00:00:04,VALID,1006.9,VALID,0,INVALID,147.054,VALID,11.5647,VALID,23.5673,VALID,16,VALID,0,
2010-10-16, 00:01:04,VALID,1006.88,VALID,0,INVALID,146.902,VALID,11.5647,VALID,23.608,VALID,16,VALID,0,
2010-10-16, 00:02:04,VALID,1006.9,VALID,0,INVALID,146.772,VALID,11.5647,VALID,23.5673,VALID,16,VALID,0,
2010-10-16, 00:03:04,VALID,1006.89,VALID,0,INVALID,146.688,VALID,11.5647,VALID,23.5673,VALID,16,VALID,0.376953,
2010-10-16, 00:04:04,VALID,1006.9,VALID,0,INVALID,146.673,VALID,11.4642,VALID,23.5673,VALID,16,VALID,0.298047,
2010-10-16, 00:05:04,VALID,1006.91,VALID,0,INVALID,146.589,VALID,11.4642,VALID,23.546,VALID,62,VALID,0.535937,
2010-10-16, 00:06:04,VALID,1006.92,VALID,0,INVALID,146.566,VALID,11.5647,VALID,23.546,VALID,88,VALID,0.240234,
2010-10-16, 00:07:04,VALID,1006.96,VALID,0,INVALID,146.52,VALID,11.5647,VALID,23.546,VALID,88,VALID,0.231641,
2010-10-16, 00:08:04,VALID,1006.96,VALID,0,INVALID,146.352,VALID,11.5647,VALID,23.5655,VALID,54,VALID,0.486328,
2010-10-16, 00:09:04,VALID,1006.97,VALID,0,INVALID,146.421,VALID,11.5647,VALID,23.546,VALID,15,VALID,0.520703,
2010-10-16, 00:10:04,VALID,1006.93,VALID,0,INVALID,146.406,VALID,11.6653,VALID,23.5053,VALID,359,VALID,0.449609,
2010-10-16, 00:11:04,VALID,1006.96,VALID,0,INVALID,146.36,VALID,11.7659,VALID,23.5248,VALID,360,VALID,0.434766,
2010-10-16, 00:12:04,VALID,1006.98,VALID,0,INVALID,146.124,VALID,11.7659,VALID,23.5248,VALID,359,VALID,0.505078,
2010-10-16, 00:13:04,VALID,1006.96,VALID,0.5,INVALID,146.116,VALID,11.8664,VALID,23.5248,VALID,359,VALID,0.486328,
2010-10-16, 00:14:04,VALID,1006.98,VALID,0,INVALID,146.009,VALID,11.967,VALID,23.5655,VALID,359,VALID,0.448828,
2010-10-16, 00:15:04,VALID,1006.95,VALID,0,INVALID,145.94,VALID,12.0676,VALID,23.5637,VALID,359,VALID,0.298828,
2010-10-16, 00:16:04,VALID,1006.95,VALID,0,INVALID,145.879,VALID,12.1681,VALID,23.5655,VALID,359,VALID,0.394531,
2010-10-16, 00:17:04,VALID,1006.96,VALID,0,INVALID,145.78,VALID,12.3692,VALID,23.5637,VALID,359,VALID,0.202734,
2010-10-16, 00:18:04,VALID,1006.96,VALID,0,INVALID,145.765,VALID,12.4698,VALID,23.5443,VALID,359,VALID,0.157031,
2010-10-16, 00:19:04,VALID,1006.97,VALID,0,INVALID,145.704,VALID,12.5704,VALID,23.585,VALID,359,VALID,0,
2010-10-16, 00:20:04,VALID,1006.96,VALID,0,INVALID,145.696,VALID,12.7715,VALID,23.5655,VALID,359,VALID,0,
2010-10-16, 00:21:04,VALID,1006.97,VALID,0,INVALID,145.597,VALID,12.9726,VALID,23.546,VALID,359,VALID,0,
2010-10-16, 00:22:04,VALID,1006.93,VALID,0,INVALID,145.529,VALID,13.1737,VALID,23.546,VALID,359,VALID,0.170312,
2010-10-16, 00:23:04,VALID,1006.91,VALID,0,INVALID,145.406,VALID,13.3749,VALID,23.585,VALID,3,VALID,0.292969,
2010-10-16, 00:24:04,VALID,1006.88,VALID,0,INVALID,145.315,VALID,13.6766,VALID,23.585,VALID,44,VALID,0.364062,
2010-10-16, 00:25:04,VALID,1006.87,VALID,0,INVALID,145.269,VALID,13.8777,VALID,23.5655,VALID,45,VALID,0,
2010-10-16, 00:26:04,VALID,1006.85,VALID,0,INVALID,145.2,VALID,14.1794,VALID,23.6062,VALID,64,VALID,0.404687,
2010-10-16, 00:27:04,VALID,1006.84,VALID,0,INVALID,145.132,VALID,14.4811,VALID,23.585,VALID,66,VALID,0,
2010-10-16, 00:28:04,VALID,1006.81,VALID,0.5,INVALID,145.117,VALID,14.7828,VALID,23.585,VALID,66,VALID,0.126953,
2010-10-16, 00:29:04,VALID,1006.82,VALID,0,INVALID,145.056,VALID,15.0844,VALID,23.5655,VALID,66,VALID,0.290625,
2010-10-16, 00:30:04,VALID,1006.81,VALID,0,INVALID,144.926,VALID,15.3861,VALID,23.585,VALID,66,VALID,0.183594,
2010-10-16, 00:31:04,VALID,1006.8,VALID,0,INVALID,144.903,VALID,15.7884,VALID,23.585,VALID,66,VALID,0.360547,
2010-10-16, 00:32:04,VALID,1006.8,VALID,0,INVALID,144.88,VALID,16.1906,VALID,23.585,VALID,66,VALID,0.157422,
2010-10-16, 00:33:04,VALID,1006.78,VALID,0,INVALID,144.796,VALID,16.6934,VALID,23.585,VALID,66,VALID,0.367578,
2010-10-16, 00:34:04,VALID,1006.8,VALID,0,INVALID,144.743,VALID,16.9951,VALID,23.5443,VALID,66,VALID,0.403125,
2010-10-16, 00:35:04,VALID,1006.73,VALID,0,INVALID,144.628,VALID,17.498,VALID,23.585,VALID,66,VALID,0.0140625,
2010-10-16, 00:36:04,VALID,1006.74,VALID,0,INVALID,144.483,VALID,17.9002,VALID,23.585,VALID,66,VALID,0.418359,
2010-10-16, 00:37:04,VALID,1006.67,VALID,0,INVALID,144.483,VALID,18.403,VALID,23.585,VALID,66,VALID,0.187109,
2010-10-16, 00:38:04,VALID,1006.64,VALID,0.5,INVALID,144.438,VALID,18.8053,VALID,23.585,VALID,66,VALID,0.227734,
2010-10-16, 00:39:04,VALID,1006.64,VALID,0,INVALID,144.377,VALID,19.3081,VALID,23.585,VALID,82,VALID,0.655469,
2010-10-16, 00:40:04,VALID,1006.6,VALID,0,INVALID,144.293,VALID,19.9115,VALID,23.585,VALID,85,VALID,0.441797,
2010-10-16, 00:41:04,VALID,1006.57,VALID,0,INVALID,144.277,VALID,20.4143,VALID,23.5868,VALID,103,VALID,0.772656,
2010-10-16, 00:42:04,VALID,1006.56,VALID,0,INVALID,144.27,VALID,20.9171,VALID,23.585,VALID,108,VALID,0.853125,
2010-10-16, 00:43:04,VALID,1006.56,VALID,0,INVALID,144.193,VALID,21.5205,VALID,23.585,VALID,105,VALID,0.601953,
2010-10-16, 00:44:04,VALID,1006.54,VALID,0,INVALID,144.216,VALID,22.0233,VALID,23.5655,VALID,92,VALID,0.705859,
2010-10-16, 00:45:04,VALID,1006.53,VALID,0,INVALID,144.186,VALID,22.6267,VALID,23.5637,VALID,92,VALID,0.658984,
2010-10-16, 00:46:04,VALID,1006.51,VALID,0,INVALID,144.132,VALID,23.3306,VALID,23.6062,VALID,105,VALID,0.746094,
2010-10-16, 00:47:04,VALID,1006.56,VALID,0,INVALID,144.01,VALID,23.8334,VALID,23.585,VALID,95,VALID,0.312891,
2010-10-16, 00:48:04,VALID,1006.56,VALID,0,INVALID,143.919,VALID,24.4368,VALID,23.6257,VALID,95,VALID,0.0117188,
2010-10-16, 00:49:04,VALID,1006.57,VALID,0,INVALID,143.926,VALID,25.0402,VALID,23.6469,VALID,41,VALID,0.635547,
2010-10-16, 00:50:04,VALID,1006.58,VALID,0,INVALID,143.896,VALID,25.6436,VALID,23.6257,VALID,44,VALID,0.00117188,
2010-10-16, 00:51:04,VALID,1006.58,VALID,0,INVALID,143.881,VALID,26.3475,VALID,23.585,VALID,44,VALID,0.282031,
2010-10-16, 00:52:04,VALID,1006.56,VALID,0,INVALID,143.919,VALID,27.0514,VALID,23.6044,VALID,16,VALID,0.239844,
2010-10-16, 00:53:04,VALID,1006.57,VALID,0,INVALID,144.01,VALID,27.8559,VALID,23.6044,VALID,6,VALID,0.672656,
2010-10-16, 00:54:04,VALID,1006.54,VALID,0,INVALID,143.995,VALID,28.6604,VALID,23.6257,VALID,14,VALID,0.340625,
2010-10-16, 00:55:04,VALID,1006.54,VALID,0,INVALID,144.056,VALID,29.3644,VALID,23.585,VALID,8,VALID,0.571094,
2010-10-16, 00:56:04,VALID,1006.51,VALID,0,INVALID,143.942,VALID,30.1689,VALID,23.6452,VALID,8,VALID,0.107813,
2010-10-16, 00:57:04,VALID,1006.52,VALID,0.5,INVALID,143.827,VALID,30.8728,VALID,23.6841,VALID,8,VALID,0,
2010-10-16, 00:58:04,VALID,1006.51,VALID,0,INVALID,143.698,VALID,31.6773,VALID,23.7035,VALID,8,VALID,0,
2010-10-16, 00:59:04,VALID,1006.49,VALID,0,INVALID,143.659,VALID,32.4818,VALID,23.723,VALID,8,VALID,0,
2010-10-16, 01:00:04,VALID,1006.5,VALID,0,INVALID,143.629,VALID,33.2863,VALID,23.7017,VALID,9,VALID,0.173047,
2010-10-16, 01:01:04,VALID,1006.48,VALID,0,INVALID,143.591,VALID,33.9903,VALID,23.7407,VALID,9,VALID,0,
2010-10-16, 01:02:04,VALID,1006.48,VALID,0,INVALID,143.522,VALID,34.5937,VALID,23.7212,VALID,9,VALID,0,
2010-10-16, 01:03:04,VALID,1006.43,VALID,0,INVALID,143.583,VALID,35.197,VALID,23.7425,VALID,59,VALID,0,
2010-10-16, 01:04:04,VALID,1006.41,VALID,0,INVALID,143.576,VALID,35.8004,VALID,23.7017,VALID,59,VALID,0.2,
2010-10-16, 01:05:04,VALID,1006.4,VALID,0,INVALID,143.614,VALID,36.4038,VALID,23.7017,VALID,59,VALID,0.216016,
2010-10-16, 01:06:04,VALID,1006.38,VALID,0,INVALID,143.644,VALID,37.2083,VALID,23.7212,VALID,59,VALID,0.190234,
2010-10-16, 01:07:04,VALID,1006.37,VALID,0,INVALID,143.583,VALID,37.6105,VALID,23.7212,VALID,59,VALID,0.314453,
2010-10-16, 01:08:04,VALID,1006.37,VALID,0,INVALID,143.682,VALID,38.3145,VALID,23.661,VALID,98,VALID,0.562891,
2010-10-16, 01:09:04,VALID,1006.35,VALID,0,INVALID,143.728,VALID,38.8173,VALID,23.6823,VALID,96,VALID,0.239844,
2010-10-16, 01:10:04,VALID,1006.33,VALID,0.5,INVALID,143.751,VALID,39.4207,VALID,23.6823,VALID,94,VALID,0.294531,
2010-10-16, 01:11:04,VALID,1006.32,VALID,0,INVALID,143.72,VALID,39.9235,VALID,23.6416,VALID,94,VALID,0.0664063,
2010-10-16, 01:12:04,VALID,1006.32,VALID,0,INVALID,143.667,VALID,40.728,VALID,23.6823,VALID,94,VALID,0,
2010-10-16, 01:13:04,VALID,1006.29,VALID,0,INVALID,143.598,VALID,41.2308,VALID,23.7017,VALID,94,VALID,0,
2010-10-16, 01:14:04,VALID,1006.26,VALID,0,INVALID,143.514,VALID,41.7336,VALID,23.7017,VALID,94,VALID,0,
2010-10-16, 01:15:04,VALID,1006.28,VALID,0,INVALID,143.377,VALID,42.337,VALID,23.7212,VALID,94,VALID,0,
2010-10-16, 01:16:04,VALID,1006.26,VALID,0,INVALID,143.263,VALID,42.8398,VALID,23.7407,VALID,94,VALID,0,
2010-10-16, 01:17:04,VALID,1006.26,VALID,0,INVALID,143.11,VALID,43.3426,VALID,23.7601,VALID,94,VALID,0.0898438,
2010-10-16, 01:18:04,VALID,1006.24,VALID,0,INVALID,143.133,VALID,43.6443,VALID,23.7796,VALID,94,VALID,0.0980469,
2010-10-16, 01:19:04,VALID,1006.21,VALID,0,INVALID,143.049,VALID,43.946,VALID,23.7796,VALID,94,VALID,0,
2010-10-16, 01:20:04,VALID,1006.19,VALID,0,INVALID,142.935,VALID,44.2477,VALID,23.7778,VALID,87,VALID,0.0597656,
2010-10-16, 01:21:04,VALID,1006.17,VALID,0,INVALID,142.965,VALID,44.6499,VALID,23.7778,VALID,87,VALID,0.0121094,
2010-10-16, 01:22:04,VALID,1006.19,VALID,0,INVALID,143.019,VALID,44.6499,VALID,23.8009,VALID,87,VALID,0,
2010-10-16, 01:23:04,VALID,1006.21,VALID,0,INVALID,143.026,VALID,44.8511,VALID,23.7814,VALID,87,VALID,0.282031,
2010-10-16, 01:24:04,VALID,1006.16,VALID,0,INVALID,143.293,VALID,45.0522,VALID,23.7407,VALID,86,VALID,0.0625,
2010-10-16, 01:25:04,VALID,1006.16,VALID,0,INVALID,143.362,VALID,45.2533,VALID,23.7425,VALID,86,VALID,0.138672,
2010-10-16, 01:26:04,VALID,1006.18,VALID,0,INVALID,143.255,VALID,45.4545,VALID,23.7814,VALID,86,VALID,0.00507812,
2010-10-16, 01:27:04,VALID,1006.18,VALID,0.5,INVALID,143.164,VALID,45.8567,VALID,23.8009,VALID,86,VALID,0,
2010-10-16, 01:28:04,VALID,1006.18,VALID,0,INVALID,143.08,VALID,46.0578,VALID,23.8398,VALID,86,VALID,0,
2010-10-16, 01:29:04,VALID,1006.17,VALID,0,INVALID,143.217,VALID,46.3595,VALID,23.8203,VALID,86,VALID,0,
2010-10-16, 01:30:04,VALID,1006.17,VALID,0,INVALID,143.309,VALID,46.6612,VALID,23.7814,VALID,87,VALID,0.488672,
2010-10-16, 01:31:04,VALID,1006.18,VALID,0,INVALID,143.461,VALID,46.9629,VALID,23.7619,VALID,87,VALID,0.553125,
2010-10-16, 01:32:04,VALID,1006.16,VALID,0,INVALID,143.621,VALID,47.2646,VALID,23.7425,VALID,87,VALID,0.238672,
2010-10-16, 01:33:04,VALID,1006.15,VALID,0,INVALID,143.774,VALID,47.164,VALID,23.7814,VALID,87,VALID,0.179688,
2010-10-16, 01:34:04,VALID,1006.12,VALID,0,INVALID,143.774,VALID,47.2646,VALID,23.7601,VALID,87,VALID,0.143359,
2010-10-16, 01:35:04,VALID,1006.14,VALID,0,INVALID,143.957,VALID,47.2646,VALID,23.7637,VALID,98,VALID,0.521875,
2010-10-16, 01:36:04,VALID,1006.13,VALID,0,INVALID,144.285,VALID,47.164,VALID,23.723,VALID,98,VALID,0.0359375,
2010-10-16, 01:37:04,VALID,1006.1,VALID,0,INVALID,144.552,VALID,47.6668,VALID,23.723,VALID,99,VALID,0.353516,
2010-10-16, 01:38:04,VALID,1006.09,VALID,0,INVALID,144.705,VALID,48.6725,VALID,23.7017,VALID,99,VALID,0.084375,
2010-10-16, 01:39:04,VALID,1006.1,VALID,0,INVALID,144.644,VALID,49.5775,VALID,23.7425,VALID,99,VALID,0.264453,
2010-10-16, 01:40:04,VALID,1006.07,VALID,0,INVALID,144.697,VALID,50.4826,VALID,23.7619,VALID,99,VALID,0.365625,
2010-10-16, 01:41:04,VALID,1006.07,VALID,0,INVALID,144.705,VALID,51.3877,VALID,23.8009,VALID,99,VALID,0.283203,
2010-10-16, 01:42:04,VALID,1006.05,VALID,0,INVALID,144.827,VALID,51.7899,VALID,23.7814,VALID,99,VALID,0.0433594,
2010-10-16, 01:43:04,VALID,1006.02,VALID,0,INVALID,144.895,VALID,51.8905,VALID,23.8221,VALID,99,VALID,0.273047,
2010-10-16, 01:44:04,VALID,1005.99,VALID,0,INVALID,144.964,VALID,51.991,VALID,23.7796,VALID,127,VALID,0.453906,
2010-10-16, 01:45:04,VALID,1005.98,VALID,0,INVALID,145.239,VALID,51.1865,VALID,23.7601,VALID,127,VALID,0.532031,
2010-10-16, 01:46:04,VALID,1005.94,VALID,0,INVALID,145.277,VALID,50.5832,VALID,23.8009,VALID,127,VALID,0.474219,
2010-10-16, 01:47:04,VALID,1005.94,VALID,0,INVALID,145.2,VALID,50.9854,VALID,23.8593,VALID,127,VALID,0.401172,
2010-10-16, 01:48:04,VALID,1005.96,VALID,0,INVALID,145.178,VALID,52.5944,VALID,23.8575,VALID,127,VALID,0.239844,
2010-10-16, 01:49:04,VALID,1005.94,VALID,0,INVALID,145.132,VALID,55.1085,VALID,23.8556,VALID,127,VALID,0,
2010-10-16, 01:50:04,VALID,1005.95,VALID,0,INVALID,145.162,VALID,56.3153,VALID,23.8982,VALID,127,VALID,0,
2010-10-16, 01:51:04,VALID,1005.94,VALID,0,INVALID,145.185,VALID,57.0192,VALID,23.8964,VALID,127,VALID,0,
2010-10-16, 01:52:04,VALID,1005.94,VALID,0,INVALID,145.185,VALID,57.7231,VALID,23.8964,VALID,108,VALID,0,
2010-10-16, 01:53:04,VALID,1005.95,VALID,0,INVALID,145.3,VALID,58.5276,VALID,23.9177,VALID,108,VALID,0,
2010-10-16, 01:54:04,VALID,1005.95,VALID,0,INVALID,145.46,VALID,59.6338,VALID,23.8982,VALID,108,VALID,0,
2010-10-16, 01:55:04,VALID,1005.95,VALID,0,INVALID,145.521,VALID,60.4383,VALID,23.8982,VALID,108,VALID,0,
2010-10-16, 01:56:04,VALID,1005.92,VALID,0,INVALID,145.506,VALID,61.6451,VALID,23.9177,VALID,108,VALID,0,
2010-10-16, 01:57:04,VALID,1005.91,VALID,0,INVALID,145.46,VALID,62.6507,VALID,23.9584,VALID,108,VALID,0,
2010-10-16, 01:58:04,VALID,1005.94,VALID,0,INVALID,145.46,VALID,63.5558,VALID,23.9371,VALID,108,VALID,0,
2010-10-16, 01:59:04,VALID,1005.96,VALID,0.5,INVALID,145.399,VALID,64.7625,VALID,23.9955,VALID,108,VALID,0,
2010-10-16, 02:00:04,VALID,1005.95,VALID,0,INVALID,145.269,VALID,66.1704,VALID,24.015,VALID,108,VALID,0,
2010-10-16, 02:01:04,VALID,1005.96,VALID,0,INVALID,145.269,VALID,68.0811,VALID,23.9955,VALID,108,VALID,0,
2010-10-16, 02:02:04,VALID,1005.95,VALID,0,INVALID,145.147,VALID,69.7907,VALID,24.0539,VALID,108,VALID,0,
2010-10-16, 02:03:04,VALID,1005.97,VALID,0,INVALID,144.88,VALID,71.7014,VALID,24.091,VALID,108,VALID,0,
2010-10-16, 02:04:04,VALID,1005.99,VALID,0,INVALID,144.766,VALID,73.6121,VALID,24.13,VALID,108,VALID,0,
2010-10-16, 02:05:04,VALID,1005.99,VALID,0,INVALID,144.773,VALID,75.6233,VALID,24.1318,VALID,108,VALID,0,
2010-10-16, 02:06:04,VALID,1005.99,VALID,0,INVALID,144.865,VALID,77.3329,VALID,24.1318,VALID,108,VALID,0,
2010-10-16, 02:07:04,VALID,1006.02,VALID,0,INVALID,144.918,VALID,79.5453,VALID,24.13,VALID,108,VALID,0,
2010-10-16, 02:08:04,VALID,1006.03,VALID,0,INVALID,144.933,VALID,81.5565,VALID,24.13,VALID,108,VALID,0,
2010-10-16, 02:09:04,VALID,1006.02,VALID,0,INVALID,144.956,VALID,83.1656,VALID,24.0892,VALID,108,VALID,0,
2010-10-16, 02:10:04,VALID,1006.01,VALID,0,INVALID,144.743,VALID,84.7746,VALID,24.1884,VALID,105,VALID,0,
2010-10-16, 02:11:04,VALID,1006.03,VALID,0,INVALID,144.918,VALID,86.3836,VALID,24.1281,VALID,63,VALID,0,
2010-10-16, 02:12:04,VALID,1006.03,VALID,0,INVALID,144.972,VALID,88.2943,VALID,24.1689,VALID,54,VALID,0,
2010-10-16, 02:13:04,VALID,1006.03,VALID,0,INVALID,144.827,VALID,89.9033,VALID,24.1689,VALID,54,VALID,0,
2010-10-16, 02:14:04,VALID,1006.01,VALID,0,INVALID,144.842,VALID,91.4117,VALID,24.2097,VALID,54,VALID,0,
2010-10-16, 02:15:04,VALID,1006,VALID,0,INVALID,144.644,VALID,93.3224,VALID,24.2468,VALID,54,VALID,0,
2010-10-16, 02:16:04,VALID,1006.01,VALID,0,INVALID,144.781,VALID,95.6354,VALID,24.206,VALID,53,VALID,0,
2010-10-16, 02:17:04,VALID,1005.99,VALID,0,INVALID,144.781,VALID,97.9483,VALID,24.2468,VALID,36,VALID,0,
2010-10-16, 02:18:04,VALID,1006.01,VALID,0,INVALID,144.651,VALID,99.7584,VALID,24.2857,VALID,36,VALID,0,
2010-10-16, 02:19:04,VALID,1005.98,VALID,0,INVALID,144.789,VALID,101.569,VALID,24.2662,VALID,35,VALID,0.409766,
2010-10-16, 02:20:04,VALID,1005.95,VALID,0,INVALID,144.964,VALID,103.982,VALID,24.2468,VALID,34,VALID,0.430469,
2010-10-16, 02:21:04,VALID,1005.95,VALID,0,INVALID,144.903,VALID,105.289,VALID,24.307,VALID,16,VALID,0.797266,
2010-10-16, 02:22:04,VALID,1005.96,VALID,0,INVALID,144.85,VALID,106.999,VALID,24.3052,VALID,109,VALID,0.307031,
2010-10-16, 02:23:04,VALID,1005.97,VALID,0,INVALID,144.674,VALID,108.105,VALID,24.3246,VALID,53,VALID,0.483594,
2010-10-16, 02:24:04,VALID,1005.98,VALID,0,INVALID,144.972,VALID,109.513,VALID,24.307,VALID,31,VALID,0.320703,
2010-10-16, 02:25:04,VALID,1005.99,VALID,0,INVALID,145.101,VALID,110.82,VALID,24.307,VALID,28,VALID,1.13281,
2010-10-16, 02:26:04,VALID,1005.99,VALID,0,INVALID,145.155,VALID,112.128,VALID,24.3265,VALID,11,VALID,1.07305,
2010-10-16, 02:27:04,VALID,1005.99,VALID,0,INVALID,145.414,VALID,113.435,VALID,24.307,VALID,15,VALID,0.951563,
2010-10-16, 02:28:04,VALID,1005.99,VALID,0,INVALID,145.651,VALID,114.843,VALID,24.2875,VALID,21,VALID,1.04844,
2010-10-16, 02:29:04,VALID,1006.02,VALID,0,INVALID,145.391,VALID,115.849,VALID,24.3654,VALID,32,VALID,0.473437,
2010-10-16, 02:30:04,VALID,1006.01,VALID,0,INVALID,145.498,VALID,117.256,VALID,24.3849,VALID,11,VALID,0.672266,
2010-10-16, 02:31:04,VALID,1006.01,VALID,0,INVALID,145.414,VALID,118.061,VALID,24.4238,VALID,11,VALID,0.344922,
2010-10-16, 02:32:04,VALID,1006.02,VALID,0,INVALID,145.49,VALID,118.664,VALID,24.4043,VALID,36,VALID,0.717969,
2010-10-16, 02:33:04,VALID,1006.05,VALID,0,INVALID,145.551,VALID,119.569,VALID,24.4433,VALID,20,VALID,0.725391,
2010-10-16, 02:34:04,VALID,1006.06,VALID,0,INVALID,145.704,VALID,120.173,VALID,24.4433,VALID,355,VALID,1.12031,
2010-10-16, 02:35:04,VALID,1006.07,VALID,0,INVALID,145.78,VALID,121.279,VALID,24.4628,VALID,18,VALID,0.932422,
2010-10-16, 02:36:04,VALID,1006.11,VALID,0,INVALID,145.849,VALID,121.983,VALID,24.4822,VALID,14,VALID,0.716016,
2010-10-16, 02:37:04,VALID,1006.1,VALID,0,INVALID,146.146,VALID,122.687,VALID,24.4628,VALID,25,VALID,1.45273,
2010-10-16, 02:38:04,VALID,1006.11,VALID,0.5,INVALID,146.452,VALID,123.793,VALID,24.4609,VALID,15,VALID,0.784375,
2010-10-16, 02:39:04,VALID,1006.11,VALID,0,INVALID,146.757,VALID,124.698,VALID,24.4628,VALID,352,VALID,1.31367,
2010-10-16, 02:40:04,VALID,1006.11,VALID,0,INVALID,146.871,VALID,125.704,VALID,24.5212,VALID,3,VALID,0.708984,
2010-10-16, 02:41:04,VALID,1006.12,VALID,0,INVALID,146.673,VALID,126.709,VALID,24.5777,VALID,358,VALID,0.36875,
2010-10-16, 02:42:04,VALID,1006.13,VALID,0,INVALID,146.757,VALID,127.816,VALID,24.5777,VALID,358,VALID,0.278516,
2010-10-16, 02:43:04,VALID,1006.12,VALID,0,INVALID,146.848,VALID,128.62,VALID,24.6166,VALID,25,VALID,0.809375,
2010-10-16, 02:44:04,VALID,1006.1,VALID,0,INVALID,147.253,VALID,129.525,VALID,24.5972,VALID,36,VALID,0.257422,
2010-10-16, 02:45:04,VALID,1006.08,VALID,0,INVALID,147.436,VALID,130.43,VALID,24.5972,VALID,42,VALID,0.386328,
2010-10-16, 02:46:04,VALID,1006.09,VALID,0,INVALID,147.741,VALID,131.637,VALID,24.5972,VALID,19,VALID,1.00117,
2010-10-16, 02:47:04,VALID,1006.07,VALID,0,INVALID,148.138,VALID,132.743,VALID,24.5758,VALID,50,VALID,0.192188,
2010-10-16, 02:48:04,VALID,1006.04,VALID,0,INVALID,148.336,VALID,133.95,VALID,24.5972,VALID,98,VALID,0.710156,
2010-10-16, 02:49:04,VALID,1006.02,VALID,0,INVALID,148.458,VALID,135.157,VALID,24.6361,VALID,88,VALID,1.02969,
2010-10-16, 02:50:04,VALID,1006,VALID,0,INVALID,148.626,VALID,136.162,VALID,24.6556,VALID,29,VALID,0.714844,
2010-10-16, 02:51:04,VALID,1005.98,VALID,0,INVALID,148.939,VALID,137.671,VALID,24.6361,VALID,65,VALID,0.502734,
2010-10-16, 02:52:04,VALID,1005.99,VALID,0,INVALID,149.061,VALID,139.179,VALID,24.6556,VALID,27,VALID,0.805078,
2010-10-16, 02:53:04,VALID,1005.96,VALID,0,INVALID,148.885,VALID,140.688,VALID,24.714,VALID,61,VALID,0.384766,
2010-10-16, 02:54:04,VALID,1005.95,VALID,0,INVALID,149.343,VALID,142.196,VALID,24.714,VALID,13,VALID,0.232812,
2010-10-16, 02:55:04,VALID,1005.93,VALID,0,INVALID,149.358,VALID,143.604,VALID,24.714,VALID,59,VALID,0.562109,
2010-10-16, 02:56:04,VALID,1005.92,VALID,0,INVALID,149.763,VALID,145.012,VALID,24.6945,VALID,98,VALID,0.690625,
2010-10-16, 02:57:04,VALID,1005.89,VALID,0,INVALID,149.862,VALID,146.42,VALID,24.714,VALID,114,VALID,0.758203,
2010-10-16, 02:58:04,VALID,1005.88,VALID,0,INVALID,149.984,VALID,147.626,VALID,24.7335,VALID,113,VALID,1.0332,
2010-10-16, 02:59:04,VALID,1005.88,VALID,0,INVALID,150.472,VALID,148.833,VALID,24.675,VALID,107,VALID,1.09922,
2010-10-16, 03:00:04,VALID,1005.87,VALID,0,INVALID,150.403,VALID,149.939,VALID,24.7335,VALID,52,VALID,0.659375,
2010-10-16, 03:01:04,VALID,1005.86,VALID,0,INVALID,150.51,VALID,151.247,VALID,24.7529,VALID,91,VALID,0.440625,
2010-10-16, 03:02:04,VALID,1005.82,VALID,0,INVALID,150.388,VALID,153.057,VALID,24.7724,VALID,56,VALID,0.450391,
2010-10-16, 03:03:04,VALID,1005.84,VALID,0,INVALID,150.724,VALID,154.565,VALID,24.7724,VALID,67,VALID,0.476563,
2010-10-16, 03:04:04,VALID,1005.83,VALID,0,INVALID,150.548,VALID,155.973,VALID,24.8113,VALID,55,VALID,0,
2010-10-16, 03:05:04,VALID,1005.81,VALID,0,INVALID,150.754,VALID,157.582,VALID,24.8113,VALID,99,VALID,0.910937,
2010-10-16, 03:06:04,VALID,1005.8,VALID,0,INVALID,150.869,VALID,158.789,VALID,24.8113,VALID,94,VALID,0.409766,
2010-10-16, 03:07:04,VALID,1005.76,VALID,0,INVALID,150.731,VALID,160.096,VALID,24.8697,VALID,68,VALID,0.503516,
2010-10-16, 03:08:04,VALID,1005.78,VALID,0,INVALID,151.189,VALID,162.51,VALID,24.7919,VALID,71,VALID,1.43711,
2010-10-16, 03:09:04,VALID,1005.73,VALID,0,INVALID,151.395,VALID,163.616,VALID,24.8113,VALID,48,VALID,0.671875,
2010-10-16, 03:10:04,VALID,1005.72,VALID,0,INVALID,151.464,VALID,165.124,VALID,24.8113,VALID,100,VALID,0.833984,
2010-10-16, 03:11:04,VALID,1005.72,VALID,0,INVALID,151.769,VALID,167.035,VALID,24.7919,VALID,110,VALID,1.07656,
2010-10-16, 03:12:04,VALID,1005.72,VALID,0,INVALID,152.082,VALID,168.141,VALID,24.7724,VALID,104,VALID,0.714063,
2010-10-16, 03:13:04,VALID,1005.69,VALID,0,INVALID,152.295,VALID,169.65,VALID,24.7919,VALID,23,VALID,1.24883,
2010-10-16, 03:14:04,VALID,1005.67,VALID,0,INVALID,152.158,VALID,171.359,VALID,24.8327,VALID,108,VALID,0.885547,
2010-10-16, 03:15:04,VALID,1005.69,VALID,0,INVALID,152.066,VALID,173.169,VALID,24.8716,VALID,23,VALID,0.516797,
2010-10-16, 03:16:04,VALID,1005.64,VALID,0,INVALID,152.173,VALID,175.281,VALID,24.8697,VALID,31,VALID,0.449219,
2010-10-16, 03:17:04,VALID,1005.61,VALID,0,INVALID,152.547,VALID,177.292,VALID,24.8113,VALID,83,VALID,1.52148,
2010-10-16, 03:18:04,VALID,1005.61,VALID,0,INVALID,153.005,VALID,180.108,VALID,24.7919,VALID,102,VALID,1.3,
2010-10-16, 03:19:04,VALID,1005.59,VALID,0,INVALID,153.333,VALID,182.522,VALID,24.7529,VALID,85,VALID,1.6582,
2010-10-16, 03:20:04,VALID,1005.55,VALID,0,INVALID,153.76,VALID,184.533,VALID,24.7529,VALID,71,VALID,0.909375,
2010-10-16, 03:21:04,VALID,1005.55,VALID,0,INVALID,153.34,VALID,186.947,VALID,24.8716,VALID,84,VALID,0.708594,
2010-10-16, 03:22:04,VALID,1005.51,VALID,0,INVALID,153.379,VALID,189.762,VALID,24.8697,VALID,62,VALID,0.552344,
2010-10-16, 03:23:04,VALID,1005.48,VALID,0,INVALID,153.318,VALID,192.477,VALID,24.8697,VALID,100,VALID,1.40156,
2010-10-16, 03:24:04,VALID,1005.47,VALID,0,INVALID,153.539,VALID,195.394,VALID,24.8892,VALID,78,VALID,0.860547,
2010-10-16, 03:25:04,VALID,1005.44,VALID,0,INVALID,153.844,VALID,198.008,VALID,24.8697,VALID,119,VALID,1.10195,
2010-10-16, 03:26:04,VALID,1005.39,VALID,0,INVALID,154.531,VALID,202.031,VALID,24.7919,VALID,108,VALID,1.9043,
2010-10-16, 03:27:04,VALID,1005.4,VALID,0,INVALID,154.538,VALID,203.741,VALID,24.8522,VALID,94,VALID,1.45313,
2010-10-16, 03:28:04,VALID,1005.37,VALID,0,INVALID,154.409,VALID,205.953,VALID,24.8484,VALID,104,VALID,1.44414,
2010-10-16, 03:29:04,VALID,1005.34,VALID,0,INVALID,154.805,VALID,208.165,VALID,24.8308,VALID,107,VALID,1.81875,
2010-10-16, 03:30:04,VALID,1005.31,VALID,0,INVALID,155.026,VALID,210.478,VALID,24.8697,VALID,118,VALID,1.95195,
2010-10-16, 03:31:04,VALID,1005.3,VALID,0,INVALID,154.744,VALID,212.691,VALID,24.9087,VALID,93,VALID,1.15937,
2010-10-16, 03:32:04,VALID,1005.24,VALID,0,INVALID,154.508,VALID,215.004,VALID,25.006,VALID,77,VALID,0.792969,
2010-10-16, 03:33:04,VALID,1005.24,VALID,0,INVALID,154.897,VALID,217.015,VALID,24.9671,VALID,45,VALID,0.687109,